Volver al catálogo

HULIANWANG DIGUI-22

ActivoComunicacionesPO
NORAD 63689·PAYLOAD·🇨🇳 China

Lanzado Apr 28, 2025 desde Wenchang Space Launch Site

Loading…

Próximos Pases (próximas 24 horas)

TLE

ActualizadoSource: Space-Track

Época: Sep 14, 2026, 13:32 UTC

1 63689U 25086C   26257.56450278  .00000057  00000-0  99264-4 0  9998
2 63689  86.4983 282.9436 0001919  80.9924 279.1427 13.24413807 66690

Sigue HULIANWANG DIGUI-22 en tiempo real con AllMySat

Download on the App Store